Location: Colebrook
(42.0017°N, 73.0973°W)
Time: 01:34:03
(UTC-05:00)

CAS-4B - Pass Details

Date: 27 November 2021
Orbit: 529 x 538 km, 43.0° (Epoch: 28 January)

Event Time Altitude Azimuth Distance (km) Brightness Sun altitude
Exits shadow 04:13:15 18° 139° (SE) 1,319 ? -29.9°
Drops below altitude 10° 04:14:28 10° 132° (SE) 1,765 ? -29.6°
Sets 04:16:45 0° 126° (SE) 2,653 ? -29.2°
